This is the latest recevied weather packets stored in our database for station/object KL1SF-7. If no packets are shown the sender has not sent any weather packets the latest 10 day(s).
| Time | Temp. | Humidity | Pressure | Rain* | Wind** | Luminosity | Snow |
|---|---|---|---|---|---|---|---|
| 1777406017 | 13.33° C | 22% | 1018.8 hPa | 0 mm | - | - | - |
| 1777405417 | 13.33° C | 22% | 1018.8 hPa | 0 mm | - | - | - |
| 1777404825 | 13.33° C | 22% | 1019 hPa | 0 mm | - | - | - |
| 1777404208 | 13.33° C | 22% | 1019.2 hPa | 0 mm | - | - | - |
| 1777403616 | 13.33° C | 21% | 1019.2 hPa | 0 mm | - | - | - |
| 1777403024 | 13.33° C | 22% | 1019.6 hPa | 0 mm | - | - | - |
| 1777402401 | 12.78° C | 23% | 1019.8 hPa | 0 mm | - | - | - |
| 1777401802 | 12.78° C | 22% | 1019.8 hPa | 0 mm | - | - | - |
| 1777401211 | 12.22° C | 23% | 1019.5 hPa | 0 mm | - | - | - |
| 1777400612 | 12.22° C | 23% | 1019.8 hPa | 0 mm | - | - | - |
| 1777400015 | 12.22° C | 23% | 1019.8 hPa | 0 mm | - | - | - |
| 1777399425 | 11.67° C | 24% | 1020 hPa | 0 mm | - | - | - |
| 1777398820 | 12.22° C | 24% | 1019.9 hPa | 0 mm | - | - | - |
| 1777398202 | 12.22° C | 25% | 1019.9 hPa | 0 mm | - | - | - |
| 1777397630 | 11.67° C | 24% | 1019.6 hPa | 0 mm | - | - | - |
| 1777397005 | 11.67° C | 26% | 1019.7 hPa | 0 mm | - | - | - |
| 1777396410 | 11.67° C | 26% | 1019.7 hPa | 0 mm | - | - | - |
| 1777395827 | 11.11° C | 26% | 1019.9 hPa | 0 mm | - | - | - |
| 1777395208 | 11.11° C | 27% | 1019.6 hPa | 0 mm | - | - | - |
| 1777394616 | 10.56° C | 27% | 1019.6 hPa | 0 mm | - | - | - |
| 1777394012 | 10° C | 28% | 1019.5 hPa | 0 mm | - | - | - |
| 1777393411 | 10° C | 27% | 1019.5 hPa | 0 mm | - | - | - |
| 1777392817 | 10.56° C | 27% | 1019.5 hPa | 0 mm | - | - | - |
| 1777392212 | 10° C | 28% | 1019.7 hPa | 0 mm | - | - | - |
| 1777391611 | 10° C | 27% | 1019.4 hPa | 0 mm | - | - | - |
* Rain since midnight (hover to see other rain measurements)
** Current wind speed in m/s (hover to see current wind gust speed)